Time,TemperatureF,DewpointF,PressureIn,WindDirection,WindDirectionDegrees,WindSpeedMPH,WindSpeedGustMPH,Humidity,HourlyPrecipIn,Conditions,Clouds,dailyrainin,SoftwareType,DateUTC
2013-01-02 00:02:00,8.0,2.0,-100.00,West,261,23.0,29.0,77,0.00,,,-99.99,,2013-01-02 00:02:00,
2013-01-02 00:12:00,8.0,2.0,-100.00,West,260,22.0,29.0,79,0.00,,,-99.99,,2013-01-02 00:12:00,
2013-01-02 00:22:00,8.0,2.0,-100.00,WSW,256,24.0,32.0,79,0.00,,,-99.99,,2013-01-02 00:22:00,
2013-01-02 00:32:00,7.0,2.0,-100.00,WSW,257,28.0,34.0,80,0.00,,,-99.99,,2013-01-02 00:32:00,
2013-01-02 00:42:00,7.0,2.0,-100.00,WSW,257,27.0,34.0,81,0.00,,,-99.99,,2013-01-02 00:42:00,
2013-01-02 00:52:00,7.0,2.0,-100.00,WSW,256,25.0,32.0,82,0.00,,,-99.99,,2013-01-02 00:52:00,
2013-01-02 01:02:00,6.0,2.0,-100.00,West,261,23.0,29.0,83,0.00,,,-99.99,,2013-01-02 01:02:00,
2013-01-02 01:12:00,6.0,2.0,-100.00,West,263,24.0,29.0,84,0.00,,,-99.99,,2013-01-02 01:12:00,
2013-01-02 01:22:00,6.0,2.0,-100.00,West,261,23.0,29.0,84,0.00,,,-99.99,,2013-01-02 01:22:00,
2013-01-02 01:32:00,5.0,1.0,-100.00,West,265,22.0,27.0,85,0.00,,,-99.99,,2013-01-02 01:32:00,
2013-01-02 01:42:00,4.0,1.0,-100.00,West,264,19.0,24.0,86,0.00,,,-99.99,,2013-01-02 01:42:00,
2013-01-02 01:52:00,5.0,1.0,-100.00,West,264,21.0,26.0,85,0.00,,,-99.99,,2013-01-02 01:52:00,
2013-01-02 02:02:00,5.0,1.0,-100.00,West,263,24.0,30.0,85,0.00,,,-99.99,,2013-01-02 02:02:00,
2013-01-02 02:12:00,5.0,1.0,-100.00,West,263,26.0,30.0,83,0.00,,,-99.99,,2013-01-02 02:12:00,
2013-01-02 02:22:00,5.0,0.0,-100.00,West,263,27.0,34.0,80,0.00,,,-99.99,,2013-01-02 02:22:00,
2013-01-02 02:32:00,5.0,0.0,-100.00,WSW,258,22.0,32.0,79,0.00,,,-99.99,,2013-01-02 02:32:00,
2013-01-02 02:42:00,5.0,0.0,-100.00,WSW,256,20.0,27.0,79,0.00,,,-99.99,,2013-01-02 02:42:00,
2013-01-02 02:52:00,5.0,0.0,-100.00,WSW,256,19.0,26.0,78,0.00,,,-99.99,,2013-01-02 02:52:00,
2013-01-02 03:02:00,5.0,0.0,-100.00,WSW,254,21.0,27.0,78,0.00,,,-99.99,,2013-01-02 03:02:00,
2013-01-02 03:12:00,6.0,0.0,-100.00,WSW,254,22.0,27.0,78,0.00,,,-99.99,,2013-01-02 03:12:00,
2013-01-02 03:22:00,7.0,1.0,-100.00,WSW,256,22.0,29.0,77,0.00,,,-99.99,,2013-01-02 03:22:00,
2013-01-02 03:32:00,7.0,2.0,-100.00,West,261,21.0,27.0,79,0.00,,,-99.99,,2013-01-02 03:32:00,
2013-01-02 03:42:00,6.0,2.0,-100.00,West,264,21.0,26.0,81,0.00,,,-99.99,,2013-01-02 03:42:00,
2013-01-02 03:52:00,7.0,3.0,-100.00,West,267,20.0,26.0,83,0.00,,,-99.99,,2013-01-02 03:52:00,
2013-01-02 04:02:00,6.0,2.0,-100.00,West,267,16.0,22.0,85,0.00,,,-99.99,,2013-01-02 04:02:00,
2013-01-02 04:12:00,6.0,2.0,-100.00,West,272,13.0,21.0,84,0.00,,,-99.99,,2013-01-02 04:12:00,
2013-01-02 04:22:00,6.0,3.0,-100.00,West,277,12.0,16.0,85,0.01,,,-99.99,,2013-01-02 04:22:00,
2013-01-02 04:32:00,6.0,3.0,-100.00,West,275,11.0,16.0,86,0.01,,,-99.99,,2013-01-02 04:32:00,
2013-01-02 04:42:00,7.0,4.0,-100.00,WNW,284,9.0,12.0,89,0.04,,,-99.99,,2013-01-02 04:42:00,
2013-01-02 04:52:00,7.0,4.0,-100.00,WNW,288,12.0,17.0,89,0.08,,,-99.99,,2013-01-02 04:52:00,
2013-01-02 05:03:00,7.0,5.0,-100.00,West,281,11.0,14.0,91,0.03,,,-99.99,,2013-01-02 05:03:00,
2013-01-02 05:12:00,7.0,5.0,-100.00,WNW,287,12.0,17.0,91,0.03,,,-99.99,,2013-01-02 05:12:00,
2013-01-02 05:22:00,7.0,5.0,-100.00,WNW,284,9.0,14.0,90,0.03,,,-99.99,,2013-01-02 05:22:00,
2013-01-02 05:33:00,7.0,5.0,-100.00,WNW,282,9.0,13.0,91,0.07,,,-99.99,,2013-01-02 05:33:00,
2013-01-02 05:42:00,7.0,5.0,-100.00,West,274,11.0,14.0,90,0.01,,,-99.99,,2013-01-02 05:42:00,
2013-01-02 05:52:00,7.0,5.0,-100.00,West,268,14.0,18.0,92,0.01,,,-99.99,,2013-01-02 05:52:00,
2013-01-02 06:02:00,7.0,5.0,-100.00,West,268,15.0,19.0,92,0.00,,,-99.99,,2013-01-02 06:02:00,
2013-01-02 06:12:00,7.0,5.0,-100.00,West,268,16.0,19.0,92,0.00,,,-99.99,,2013-01-02 06:12:00,
2013-01-02 06:22:00,8.0,6.0,-100.00,West,264,13.0,17.0,91,0.03,,,-99.99,,2013-01-02 06:22:00,
2013-01-02 06:32:00,8.0,6.0,-100.00,West,264,12.0,16.0,91,0.01,,,-99.99,,2013-01-02 06:32:00,
2013-01-02 06:42:00,7.0,5.0,-100.00,West,263,11.0,14.0,90,0.01,,,-99.99,,2013-01-02 06:42:00,
2013-01-02 06:52:00,7.0,5.0,-100.00,West,263,11.0,14.0,90,0.00,,,-99.99,,2013-01-02 06:52:00,
2013-01-02 07:02:00,7.0,5.0,-100.00,West,270,11.0,15.0,91,0.01,,,-99.99,,2013-01-02 07:02:00,
2013-01-02 07:12:00,7.0,5.0,-100.00,West,272,9.0,14.0,91,0.01,,,-99.99,,2013-01-02 07:12:00,
2013-01-02 07:22:00,8.0,6.0,-100.00,WNW,295,12.0,21.0,91,0.04,,,-99.99,,2013-01-02 07:22:00,
2013-01-02 07:32:00,8.0,6.0,-100.00,WNW,298,17.0,22.0,91,0.01,,,-99.99,,2013-01-02 07:32:00,
2013-01-02 07:42:00,8.0,6.0,-100.00,WNW,299,16.0,22.0,91,0.01,,,-99.99,,2013-01-02 07:42:00,
2013-01-02 07:52:00,8.0,6.0,-100.00,NW,305,17.0,22.0,91,0.04,,,-99.99,,2013-01-02 07:52:00,
2013-01-02 08:02:00,8.0,6.0,-100.00,NW,304,18.0,26.0,91,0.07,,,-99.99,,2013-01-02 08:02:00,
2013-01-02 08:11:00,8.0,6.0,-100.00,WNW,301,19.0,26.0,91,0.06,,,-99.99,,2013-01-02 08:11:00,
2013-01-02 08:22:00,8.0,6.0,-100.00,WNW,296,20.0,26.0,91,0.07,,,-99.99,,2013-01-02 08:22:00,
2013-01-02 08:32:00,8.0,6.0,-100.00,WNW,292,18.0,24.0,91,0.03,,,-99.99,,2013-01-02 08:32:00,
2013-01-02 08:42:00,8.0,6.0,-100.00,WNW,292,16.0,20.0,91,0.07,,,-99.99,,2013-01-02 08:42:00,
2013-01-02 08:52:00,8.0,6.0,-100.00,WNW,296,15.0,19.0,91,0.01,,,-99.99,,2013-01-02 08:52:00,
2013-01-02 09:02:00,8.0,6.0,-100.00,WNW,302,14.0,19.0,91,0.03,,,-99.99,,2013-01-02 09:02:00,
2013-01-02 09:12:00,8.0,6.0,-100.00,NW,304,14.0,17.0,90,0.00,,,-99.99,,2013-01-02 09:12:00,
2013-01-02 09:22:00,8.0,6.0,-100.00,NW,304,14.0,19.0,90,0.00,,,-99.99,,2013-01-02 09:22:00,
2013-01-02 09:32:00,8.0,6.0,-100.00,WNW,295,12.0,17.0,90,0.00,,,-99.99,,2013-01-02 09:32:00,
2013-01-02 09:43:00,8.0,5.0,-100.00,WNW,295,11.0,14.0,90,0.01,,,-99.99,,2013-01-02 09:43:00,
2013-01-02 09:52:00,7.0,5.0,-100.00,WNW,285,7.0,12.0,91,0.01,,,-99.99,,2013-01-02 09:52:00,
2013-01-02 10:02:00,7.0,5.0,-100.00,West,281,9.0,16.0,90,0.00,,,-99.99,,2013-01-02 10:02:00,
2013-01-02 10:12:00,7.0,5.0,-100.00,West,281,11.0,18.0,89,0.00,,,-99.99,,2013-01-02 10:12:00,
2013-01-02 10:22:00,8.0,5.0,-100.00,WNW,288,15.0,22.0,87,0.00,,,-99.99,,2013-01-02 10:22:00,
2013-01-02 10:32:00,8.0,4.0,-100.00,WNW,292,18.0,26.0,87,0.00,,,-99.99,,2013-01-02 10:32:00,
2013-01-02 10:42:00,7.0,4.0,-100.00,WNW,294,20.0,25.0,87,0.00,,,-99.99,,2013-01-02 10:42:00,
2013-01-02 10:52:00,7.0,4.0,-100.00,WNW,292,18.0,24.0,87,0.00,,,-99.99,,2013-01-02 10:52:00,
2013-01-02 11:02:00,7.0,4.0,-100.00,WNW,289,19.0,27.0,88,0.00,,,-99.99,,2013-01-02 11:02:00,
2013-01-02 11:12:00,7.0,4.0,-100.00,WNW,289,22.0,30.0,87,0.00,,,-99.99,,2013-01-02 11:12:00,
2013-01-02 11:22:00,7.0,4.0,-100.00,WNW,291,22.0,29.0,88,0.00,,,-99.99,,2013-01-02 11:22:00,
2013-01-02 11:32:00,7.0,5.0,-100.00,WNW,296,21.0,28.0,89,0.00,,,-99.99,,2013-01-02 11:32:00,
2013-01-02 11:42:00,7.0,5.0,-100.00,WNW,299,19.0,24.0,89,0.00,,,-99.99,,2013-01-02 11:42:00,
2013-01-02 11:52:00,7.0,5.0,-100.00,WNW,299,22.0,29.0,89,0.00,,,-99.99,,2013-01-02 11:52:00,
2013-01-02 12:02:00,7.0,5.0,-100.00,WNW,299,22.0,32.0,88,0.00,,,-99.99,,2013-01-02 12:02:00,
2013-01-02 12:12:00,7.0,4.0,-100.00,WNW,301,20.0,27.0,88,0.00,,,-99.99,,2013-01-02 12:12:00,
2013-01-02 12:22:00,7.0,5.0,-100.00,WNW,302,18.0,26.0,88,0.00,,,-99.99,,2013-01-02 12:22:00,
2013-01-02 12:32:00,7.0,4.0,-100.00,WNW,299,16.0,22.0,88,0.00,,,-99.99,,2013-01-02 12:32:00,
2013-01-02 12:42:00,7.0,4.0,-100.00,WNW,298,14.0,18.0,88,0.00,,,-99.99,,2013-01-02 12:42:00,
2013-01-02 12:52:00,7.0,4.0,-100.00,WNW,302,12.0,17.0,88,0.00,,,-99.99,,2013-01-02 12:52:00,
2013-01-02 13:02:00,7.0,4.0,-100.00,NW,309,14.0,18.0,88,0.00,,,-99.99,,2013-01-02 13:02:00,
2013-01-02 13:12:00,7.0,4.0,-100.00,NW,305,14.0,19.0,88,0.00,,,-99.99,,2013-01-02 13:12:00,
2013-01-02 13:22:00,7.0,4.0,-100.00,WNW,298,14.0,18.0,89,0.00,,,-99.99,,2013-01-02 13:22:00,
2013-01-02 13:32:00,7.0,4.0,-100.00,WNW,296,14.0,18.0,88,0.00,,,-99.99,,2013-01-02 13:32:00,
2013-01-02 13:42:00,7.0,4.0,-100.00,WNW,295,13.0,18.0,88,0.00,,,-99.99,,2013-01-02 13:42:00,
2013-01-02 13:52:00,7.0,4.0,-100.00,WNW,287,10.0,14.0,89,0.00,,,-99.99,,2013-01-02 13:52:00,
2013-01-02 14:02:00,7.0,4.0,-100.00,WNW,287,10.0,14.0,89,0.00,,,-99.99,,2013-01-02 14:02:00,
2013-01-02 14:12:00,7.0,4.0,-100.00,WNW,288,10.0,15.0,88,0.00,,,-99.99,,2013-01-02 14:12:00,
2013-01-02 14:22:00,7.0,4.0,-100.00,WNW,285,12.0,19.0,86,0.00,,,-99.99,,2013-01-02 14:22:00,
2013-01-02 14:33:00,8.0,4.0,-100.00,WNW,291,16.0,23.0,86,0.00,,,-99.99,,2013-01-02 14:33:00,
2013-01-02 14:53:00,8.0,4.0,-100.00,WNW,292,19.0,25.0,85,0.00,,,-99.99,,2013-01-02 14:53:00,
2013-01-02 15:02:00,8.0,4.0,-100.00,WNW,292,17.0,24.0,85,0.00,,,-99.99,,2013-01-02 15:02:00,
2013-01-02 15:12:00,8.0,4.0,-100.00,WNW,294,17.0,22.0,84,0.00,,,-99.99,,2013-01-02 15:12:00,
2013-01-02 15:22:00,8.0,4.0,-100.00,WNW,285,14.0,20.0,82,0.00,,,-99.99,,2013-01-02 15:22:00,
2013-01-02 15:33:00,8.0,3.0,-100.00,WNW,282,14.0,21.0,82,0.00,,,-99.99,,2013-01-02 15:33:00,
2013-01-02 15:42:00,8.0,3.0,-100.00,WNW,282,14.0,21.0,83,0.00,,,-99.99,,2013-01-02 15:42:00,
2013-01-02 15:52:00,7.0,3.0,-100.00,West,280,13.0,19.0,82,0.00,,,-99.99,,2013-01-02 15:52:00,
2013-01-02 16:03:00,7.0,3.0,-100.00,West,280,15.0,22.0,82,0.00,,,-99.99,,2013-01-02 16:03:00,
2013-01-02 16:12:00,8.0,3.0,-100.00,West,281,17.0,23.0,82,0.00,,,-99.99,,2013-01-02 16:12:00,
2013-01-02 16:22:00,8.0,3.0,-100.00,WNW,282,18.0,24.0,82,0.00,,,-99.99,,2013-01-02 16:22:00,
2013-01-02 16:33:00,8.0,3.0,-100.00,WNW,284,16.0,22.0,82,0.00,,,-99.99,,2013-01-02 16:33:00,
2013-01-02 16:53:00,8.0,4.0,-100.00,WNW,292,19.0,27.0,86,0.00,,,-99.99,,2013-01-02 16:53:00,
2013-01-02 17:03:00,8.0,4.0,-100.00,WNW,294,21.0,26.0,85,0.00,,,-99.99,,2013-01-02 17:03:00,
2013-01-02 17:12:00,8.0,4.0,-100.00,WNW,295,21.0,27.0,84,0.00,,,-99.99,,2013-01-02 17:12:00,
2013-01-02 17:22:00,8.0,4.0,-100.00,WNW,296,21.0,27.0,83,0.00,,,-99.99,,2013-01-02 17:22:00,
2013-01-02 17:33:00,8.0,4.0,-100.00,WNW,296,22.0,30.0,83,0.00,,,-99.99,,2013-01-02 17:33:00,
2013-01-02 17:43:00,8.0,4.0,-100.00,WNW,292,22.0,29.0,83,0.00,,,-99.99,,2013-01-02 17:43:00,
2013-01-02 17:53:00,9.0,4.0,-100.00,WNW,295,22.0,29.0,82,0.00,,,-99.99,,2013-01-02 17:53:00,
2013-01-02 18:02:00,9.0,4.0,-100.00,WNW,292,22.0,29.0,82,0.00,,,-99.99,,2013-01-02 18:02:00,
2013-01-02 18:12:00,9.0,4.0,-100.00,WNW,292,22.0,29.0,82,0.00,,,-99.99,,2013-01-02 18:12:00,
2013-01-02 18:22:00,9.0,5.0,-100.00,WNW,298,22.0,30.0,81,0.00,,,-99.99,,2013-01-02 18:22:00,
2013-01-02 18:33:00,10.0,5.0,-100.00,NW,305,22.0,34.0,81,0.00,,,-99.99,,2013-01-02 18:33:00,
2013-01-02 18:42:00,10.0,5.0,-100.00,WNW,302,22.0,34.0,82,0.00,,,-99.99,,2013-01-02 18:42:00,
2013-01-02 18:53:00,10.0,5.0,-100.00,WNW,296,24.0,32.0,79,0.00,,,-99.99,,2013-01-02 18:53:00,
2013-01-02 19:03:00,9.0,4.0,-100.00,WNW,295,25.0,33.0,80,0.00,,,-99.99,,2013-01-02 19:03:00,
2013-01-02 19:12:00,9.0,4.0,-100.00,WNW,295,25.0,32.0,78,0.00,,,-99.99,,2013-01-02 19:12:00,
2013-01-02 19:22:00,10.0,4.0,-100.00,WNW,292,25.0,35.0,78,0.00,,,-99.99,,2013-01-02 19:22:00,
2013-01-02 19:32:00,9.0,4.0,-100.00,WNW,294,25.0,34.0,79,0.00,,,-99.99,,2013-01-02 19:32:00,
2013-01-02 19:42:00,9.0,4.0,-100.00,WNW,295,23.0,29.0,77,0.00,,,-99.99,,2013-01-02 19:42:00,
2013-01-02 19:52:00,10.0,4.0,-100.00,WNW,296,25.0,32.0,78,0.00,,,-99.99,,2013-01-02 19:52:00,
2013-01-02 20:02:00,10.0,3.0,-100.00,WNW,302,24.0,31.0,74,0.00,,,-99.99,,2013-01-02 20:02:00,
2013-01-02 20:12:00,10.0,3.0,-100.00,WNW,302,24.0,30.0,74,0.00,,,-99.99,,2013-01-02 20:12:00,
2013-01-02 20:22:00,10.0,3.0,-100.00,WNW,296,23.0,29.0,71,0.00,,,-99.99,,2013-01-02 20:22:00,
2013-01-02 20:33:00,10.0,3.0,-100.00,WNW,294,24.0,32.0,74,0.00,,,-99.99,,2013-01-02 20:33:00,
2013-01-02 20:42:00,10.0,4.0,-100.00,WNW,296,24.0,32.0,75,0.00,,,-99.99,,2013-01-02 20:42:00,
2013-01-02 20:53:00,10.0,4.0,-100.00,WNW,302,27.0,35.0,75,0.00,,,-99.99,,2013-01-02 20:53:00,
2013-01-02 21:03:00,10.0,2.0,-100.00,WNW,301,28.0,38.0,70,0.00,,,-99.99,,2013-01-02 21:03:00,
2013-01-02 21:12:00,10.0,2.0,-100.00,WNW,299,29.0,38.0,71,0.00,,,-99.99,,2013-01-02 21:12:00,
2013-01-02 21:22:00,10.0,1.0,-100.00,WNW,301,24.0,36.0,64,0.00,,,-99.99,,2013-01-02 21:22:00,
2013-01-02 21:32:00,10.0,3.0,-100.00,WNW,301,25.0,32.0,71,0.00,,,-99.99,,2013-01-02 21:32:00,
2013-01-02 21:42:00,10.0,1.0,-100.00,WNW,299,26.0,35.0,66,0.00,,,-99.99,,2013-01-02 21:42:00,
2013-01-02 21:52:00,10.0,1.0,-100.00,WNW,299,25.0,35.0,65,0.00,,,-99.99,,2013-01-02 21:52:00,
2013-01-02 22:02:00,11.0,1.0,-100.00,WNW,295,24.0,33.0,66,0.00,,,-99.99,,2013-01-02 22:02:00,
2013-01-02 22:13:00,-999.0,-99.9,-100.00,WNW,294,24.0,33.0,-999,-99.99,,,-99.99,,2013-01-02 22:13:00,
2013-01-02 22:22:00,10.0,-1.0,-100.00,WNW,294,27.0,34.0,61,0.00,,,-99.99,,2013-01-02 22:22:00,
2013-01-02 22:32:00,10.0,0.0,-100.00,WNW,294,26.0,35.0,62,0.00,,,-99.99,,2013-01-02 22:32:00,
2013-01-02 22:42:00,10.0,0.0,-100.00,WNW,295,24.0,31.0,63,0.00,,,-99.99,,2013-01-02 22:42:00,
2013-01-02 22:52:00,10.0,-1.0,-100.00,WNW,292,24.0,32.0,63,0.00,,,-99.99,,2013-01-02 22:52:00,
2013-01-02 23:02:00,9.0,-1.0,-100.00,WNW,294,24.0,30.0,62,0.00,,,-99.99,,2013-01-02 23:02:00,
2013-01-02 23:12:00,9.0,0.0,-100.00,WNW,294,24.0,30.0,64,0.00,,,-99.99,,2013-01-02 23:12:00,
2013-01-02 23:22:00,9.0,-1.0,-100.00,WNW,295,24.0,29.0,63,0.00,,,-99.99,,2013-01-02 23:22:00,
2013-01-02 23:33:00,9.0,-1.0,-100.00,WNW,294,24.0,30.0,65,0.00,,,-99.99,,2013-01-02 23:33:00,
2013-01-02 23:42:00,9.0,-1.0,-100.00,WNW,295,22.0,28.0,65,0.00,,,-99.99,,2013-01-02 23:42:00,
2013-01-02 23:52:00,9.0,-1.0,-100.00,WNW,295,24.0,32.0,64,0.00,,,-99.99,,2013-01-02 23:52:00,